Ozona, TX

4:35 AM CST on February 25, 2017 (GMT -0600)
Ozona Municipal

Weather History for KOZA - November, 2013

Change the Weather History Date:

Saturday, November 23, 2013

  Actual Average Record
Temperature  
Mean Temperature 31 °F -  
Max Temperature 32 °F 68 °F 75 °F (2014)
Min Temperature 30 °F 37 °F 26 °F (2015)
Degree Days  
Heating Degree Days 34    
Moisture  
Dew Point 31 °F    
Average Humidity 97    
Maximum Humidity 100    
Minimum Humidity 93    
Precipitation  
Precipitation 0.13 in - - ()
Sea Level Pressure  
Sea Level Pressure 30.48 in    
Wind  
Wind Speed 15 mph (NNE)    
Max Wind Speed 20 mph    
Max Gust Speed 26 mph    
Visibility 6 miles    
Events Snow    
Averages and records for this station are not official NWS values.
T = Trace of Precipitation, MM = Missing Value Source: NWS Daily Summary

Daily Weather History Graph

Daily Weather History Graph

Search for Another Location

Airport or City:

Trip Planner

Search our weather history database for the weather conditions in past years. The results will help you decide how hot, cold, wet, or windy it might be!

Date:

Astronomy

Nov. 23, 2013 Rise Set
Actual Time 7:18 AM CST 5:44 PM CST
Civil Twilight 6:52 AM CST 6:10 PM CST
Nautical Twilight 6:22 AM CST 6:39 PM CST
Astronomical Twilight 5:53 AM CST 7:08 PM CST
Moon 11:05 PM CST (11/23) 11:43 AM CST (11/23)
Length of Visible Light 11h 17m
Length of Day
10h 25m
Waning Gibbous, 69% of the Moon is Illuminated
Nov 23
Waning Gibbous
Nov 25
Last Quarter
Dec 2
New
Dec 9
First Quarter
Dec 17
Full

Hourly Weather History & Observations

Time (CST) Temp. Windchill Dew Point Humidity Pressure Visibility Wind Dir Wind Speed Gust Speed Precip Events Conditions
12:15 AM 32.0 °F 21.6 °F 30.2 °F 93% 30.47 in 10.0 mi North 15.0 mph 18.4 mph N/A   Overcast
12:35 AM 32.0 °F 22.1 °F 30.2 °F 93% 30.46 in 7.0 mi North 13.8 mph 19.6 mph N/A   Overcast
12:55 AM 32.0 °F 22.5 °F 30.2 °F 93% 30.46 in 10.0 mi North 12.7 mph - N/A   Overcast
1:15 AM 32.0 °F 20.8 °F 30.2 °F 93% 30.45 in 7.0 mi North 17.3 mph 24.2 mph N/A   Overcast
1:35 AM 32.0 °F 20.1 °F 30.2 °F 93% 30.45 in 10.0 mi North 19.6 mph - N/A   Overcast
1:55 AM 32.0 °F 21.6 °F 30.2 °F 93% 30.45 in 10.0 mi North 15.0 mph 19.6 mph N/A   Overcast
2:15 AM 32.0 °F 21.2 °F 30.2 °F 93% 30.45 in 10.0 mi North 16.1 mph - N/A   Overcast
2:35 AM 32.0 °F 21.6 °F 30.2 °F 93% 30.45 in 10.0 mi North 15.0 mph - N/A   Overcast
2:55 AM 32.0 °F 21.6 °F 30.2 °F 93% 30.45 in 10.0 mi NNE 15.0 mph 21.9 mph N/A   Overcast
3:15 AM 32.0 °F 22.1 °F 30.2 °F 93% 30.46 in 7.0 mi North 13.8 mph - N/A   Overcast
3:35 AM 32.0 °F 21.6 °F 30.2 °F 93% 30.46 in 5.0 mi North 15.0 mph - N/A   Overcast
3:55 AM 32.0 °F 21.6 °F 30.2 °F 93% 30.46 in 4.0 mi North 15.0 mph 21.9 mph N/A   Overcast
4:15 AM 32.0 °F 22.5 °F 30.2 °F 93% 30.45 in 5.0 mi North 12.7 mph 20.7 mph N/A   Overcast
4:35 AM 32.0 °F 20.5 °F 30.2 °F 93% 30.45 in 4.0 mi North 18.4 mph 23.0 mph N/A   Overcast
4:55 AM 30.2 °F 19.8 °F 30.2 °F 100% 30.46 in 5.0 mi North 13.8 mph - N/A   Overcast
5:15 AM 32.0 °F 24.2 °F 30.2 °F 93% 30.47 in 7.0 mi North 9.2 mph - N/A   Overcast
5:35 AM 32.0 °F 20.8 °F 30.2 °F 93% 30.47 in 7.0 mi North 17.3 mph 23.0 mph N/A   Overcast
5:55 AM 30.2 °F 19.8 °F 30.2 °F 100% 30.47 in 7.0 mi North 13.8 mph - N/A   Overcast
6:15 AM 30.2 °F 19.3 °F 30.2 °F 100% 30.48 in 7.0 mi North 15.0 mph 21.9 mph N/A   Overcast
6:35 AM 30.2 °F 19.3 °F 30.2 °F 100% 30.47 in 7.0 mi NNE 15.0 mph - N/A   Overcast
6:55 AM 30.2 °F 19.3 °F 30.2 °F 100% 30.48 in 7.0 mi North 15.0 mph - N/A   Overcast
7:15 AM 30.2 °F 18.9 °F 30.2 °F 100% 30.49 in 7.0 mi North 16.1 mph 25.3 mph N/A   Overcast
7:35 AM 30.2 °F 19.3 °F 30.2 °F 100% 30.50 in 10.0 mi North 15.0 mph 19.6 mph N/A   Overcast
7:55 AM 30.2 °F 19.8 °F 30.2 °F 100% 30.51 in 10.0 mi North 13.8 mph - N/A   Overcast
8:15 AM 30.2 °F 19.3 °F 30.2 °F 100% 30.51 in 7.0 mi North 15.0 mph - N/A   Overcast
8:35 AM 30.2 °F 19.3 °F 30.2 °F 100% 30.51 in 5.0 mi North 15.0 mph 24.2 mph N/A   Overcast
8:55 AM 32.0 °F 21.2 °F 30.2 °F 93% 30.52 in 4.0 mi North 16.1 mph 21.9 mph N/A   Overcast
9:15 AM 32.0 °F 21.6 °F 30.2 °F 93% 30.52 in 5.0 mi NNE 15.0 mph 24.2 mph N/A   Overcast
9:35 AM 32.0 °F 20.8 °F 30.2 °F 93% 30.53 in 7.0 mi NNE 17.3 mph 23.0 mph N/A   Overcast
9:55 AM 32.0 °F 20.5 °F 30.2 °F 93% 30.53 in 10.0 mi North 18.4 mph - N/A   Overcast
10:15 AM 32.0 °F 21.2 °F 30.2 °F 93% 30.53 in 5.0 mi North 16.1 mph 20.7 mph N/A   Overcast
10:35 AM 32.0 °F 20.1 °F 30.2 °F 93% 30.52 in 4.0 mi North 19.6 mph - N/A   Overcast
10:55 AM 32.0 °F 22.1 °F 30.2 °F 93% 30.52 in 4.0 mi NNE 13.8 mph 21.9 mph N/A   Overcast
11:15 AM 32.0 °F 22.1 °F 30.2 °F 93% 30.52 in 5.0 mi North 13.8 mph - N/A   Overcast
11:35 AM 32.0 °F 20.8 °F 30.2 °F 93% 30.52 in 5.0 mi North 17.3 mph 21.9 mph N/A   Overcast
11:55 AM 32.0 °F 21.2 °F 30.2 °F 93% 30.51 in 3.0 mi North 16.1 mph - N/A   Overcast
12:15 PM 32.0 °F 20.5 °F 32.0 °F 100% 30.51 in 2.5 mi North 18.4 mph 23.0 mph N/A   Overcast
12:35 PM 32.0 °F 21.2 °F 32.0 °F 100% 30.49 in 3.0 mi North 16.1 mph 19.6 mph N/A   Overcast
12:55 PM 32.0 °F 20.1 °F 32.0 °F 100% 30.48 in 4.0 mi North 19.6 mph - N/A   Overcast
1:15 PM 32.0 °F 20.8 °F 32.0 °F 100% 30.48 in 3.0 mi North 17.3 mph 20.7 mph N/A   Overcast
1:35 PM 32.0 °F 21.6 °F 32.0 °F 100% 30.47 in 3.0 mi North 15.0 mph 21.9 mph N/A   Overcast
1:55 PM 32.0 °F 22.1 °F 32.0 °F 100% 30.47 in 3.0 mi North 13.8 mph 19.6 mph N/A   Overcast
2:15 PM 32.0 °F 22.5 °F 32.0 °F 100% 30.47 in 4.0 mi North 12.7 mph 16.1 mph N/A   Overcast
2:35 PM 32.0 °F 21.2 °F 32.0 °F 100% 30.47 in 3.0 mi North 16.1 mph - N/A   Overcast
2:55 PM 32.0 °F 21.2 °F 32.0 °F 100% 30.47 in 3.0 mi North 16.1 mph - N/A   Overcast
3:15 PM 32.0 °F 21.6 °F 32.0 °F 100% 30.46 in 3.0 mi North 15.0 mph 18.4 mph N/A   Overcast
3:35 PM 32.0 °F 20.8 °F 32.0 °F 100% 30.46 in 3.0 mi NNE 17.3 mph - N/A   Overcast
3:55 PM 32.0 °F 21.2 °F 32.0 °F 100% 30.46 in 4.0 mi North 16.1 mph 21.9 mph N/A   Overcast
4:15 PM 32.0 °F 20.5 °F 32.0 °F 100% 30.45 in 5.0 mi NNE 18.4 mph 23.0 mph N/A   Overcast
4:35 PM 32.0 °F 22.5 °F 32.0 °F 100% 30.45 in 10.0 mi NNE 12.7 mph 19.6 mph N/A   Overcast
4:55 PM 32.0 °F 20.8 °F 32.0 °F 100% 30.45 in 10.0 mi NNE 17.3 mph - N/A   Overcast
5:15 PM 32.0 °F 20.5 °F 32.0 °F 100% 30.45 in 7.0 mi NNE 18.4 mph 24.2 mph N/A   Overcast
5:35 PM 32.0 °F 23.0 °F 32.0 °F 100% 30.46 in 5.0 mi NNE 11.5 mph 25.3 mph N/A   Overcast
5:55 PM 32.0 °F 22.1 °F 32.0 °F 100% 30.47 in 3.0 mi North 13.8 mph 17.3 mph N/A   Overcast
6:15 PM 32.0 °F 22.1 °F 32.0 °F 100% 30.47 in 4.0 mi North 13.8 mph - N/A   Overcast
6:35 PM 32.0 °F 20.8 °F 32.0 °F 100% 30.48 in 5.0 mi North 17.3 mph 23.0 mph N/A   Overcast
6:55 PM 32.0 °F 22.5 °F 32.0 °F 100% 30.49 in 3.0 mi NNE 12.7 mph - N/A   Overcast
7:15 PM 32.0 °F 23.0 °F 32.0 °F 100% 30.49 in 4.0 mi NNE 11.5 mph 19.6 mph N/A   Overcast
7:35 PM 32.0 °F 22.1 °F 32.0 °F 100% 30.48 in 2.5 mi NNE 13.8 mph 17.3 mph 0.01 in Snow Light Snow
7:55 PM 32.0 °F 22.1 °F 32.0 °F 100% 30.49 in 4.0 mi NNE 13.8 mph - 0.05 in Snow Light Snow
8:15 PM 32.0 °F 22.1 °F 32.0 °F 100% 30.49 in 5.0 mi NNE 13.8 mph 21.9 mph N/A   Overcast
8:35 PM 32.0 °F 21.2 °F 32.0 °F 100% 30.49 in 5.0 mi NNE 16.1 mph 20.7 mph N/A   Overcast
8:55 PM 32.0 °F 21.2 °F 32.0 °F 100% 30.49 in 4.0 mi NNE 16.1 mph - N/A   Overcast
9:15 PM 32.0 °F 20.5 °F 32.0 °F 100% 30.49 in 5.0 mi NNE 18.4 mph 24.2 mph N/A   Overcast
9:35 PM 32.0 °F 20.5 °F 32.0 °F 100% 30.50 in 4.0 mi North 18.4 mph 25.3 mph N/A   Overcast
9:55 PM 32.0 °F 21.6 °F 32.0 °F 100% 30.52 in 4.0 mi NNE 15.0 mph 21.9 mph 0.01 in   Overcast
10:15 PM 32.0 °F 21.6 °F 32.0 °F 100% 30.52 in 2.5 mi North 15.0 mph 21.9 mph 0.03 in Snow Light Snow
10:35 PM 32.0 °F 21.6 °F 30.2 °F 93% 30.51 in 5.0 mi NNE 15.0 mph - 0.06 in Snow Light Snow
10:55 PM 32.0 °F 21.2 °F 30.2 °F 93% 30.52 in 4.0 mi NNE 16.1 mph 26.5 mph 0.07 in Snow Light Snow
11:15 PM 32.0 °F 22.1 °F 30.2 °F 93% 30.52 in 7.0 mi NNE 13.8 mph 20.7 mph N/A   Overcast
11:35 PM 32.0 °F 22.5 °F 30.2 °F 93% 30.52 in 5.0 mi North 12.7 mph 18.4 mph N/A   Overcast
11:55 PM 32.0 °F 23.0 °F 30.2 °F 93% 30.52 in 4.0 mi North 11.5 mph - N/A Snow Light Snow